User: anonymous   Login
Location: Caltech
(34.1382°N, 118.1253°W)
Time: 17:11:41
(UTC-08:00)
Language:

Iridium 49 - Orbit

View from above orbital plane
View from above orbital plane
View from above satellite
View from above satellite

Ground track
Ground track

The orbit data is extracted from the following two-line orbital elements,

1 25108U 97082E   14332.43657505  .00000185  00000-0  59123-4 0   113
2 25108 086.3956 284.8755 0002254 104.0122 011.7178 14.34214178886829
Epoch (UTC): 28 November 2014 10:28:40
Eccentricity: 0.0002254
inclination: 86.3956°
perigee height: 776 km
apogee height: 779 km
right ascension of ascending node: 284.8755°
argument of perigee: 104.0122°
revolutions per day: 14.34214178
mean anomaly at epoch: 11.7178°
orbit number at epoch: 88682

The dashed part of the orbit path shows where the satellite is in the earth's shadow,  

DLR